Wind_Speed
23 22 20 19 17 16 14 11 9 7 5 3 2 3 5 6 7 8 8 9 9 10 10 10 11 11 10 9 9 9 9 8 8 8 8 8 7 6 6 7 6 6 6 6
24 24 23 22 20 18 16 14 12 11 8 7 4 3 4 5 5 5 7 8 9 9 10 10 10 10 10 9 8 8 9 8 8 8 8 7 7 7 7 7 7 6 6 7
25 25 25 24 22 20 19 17 15 13 11 9 8 5 4 4 4 5 6 8 8 9 10 10 9 9 9 9 8 8 9 9 9 9 8 8 7 8 8 8 7 7 7 8
27 27 27 25 23 21 20 18 17 15 13 12 10 7 4 4 4 4 6 8 8 8 9 10 9 9 9 8 9 9 10 10 10 10 9 8 8 9 8 8 8 8 8 8
29 28 27 26 24 23 22 20 18 17 16 14 12 10 6 5 4 4 6 7 8 9 8 9 9 9 9 9 10 10 11 11 11 10 8 8 9 8 8 8 8 8 9 9
30 29 28 26 26 25 23 22 21 19 17 16 13 12 7 6 5 4 6 6 7 8 9 9 8 8 8 9 10 11 11 11 11 9 8 9 9 9 9 9 9 9 10 10
32 31 29 28 28 27 25 24 23 22 19 17 15 13 9 7 7 6 6 6 7 8 9 8 8 9 8 9 10 11 11 11 10 9 8 8 9 9 9 9 9 10 10 10
33 32 31 30 29 28 27 26 25 24 21 19 17 14 10 8 8 7 6 7 8 8 8 8 9 10 9 10 10 10 10 11 10 10 10 9 9 9 10 10 10 11 11 11
34 32 31 31 29 29 28 27 26 25 23 22 20 15 12 11 10 8 7 7 7 8 8 8 9 10 11 12 10 10 10 10 10 10 10 10 10 10 10 10 10 11 11 12
34 33 32 31 31 30 29 28 27 26 25 23 21 17 13 12 11 10 8 7 8 8 8 8 9 11 12 12 11 9 10 10 10 10 10 10 10 11 11 11 11 11 12 12
35 34 33 33 32 31 30 29 28 27 25 23 21 18 15 14 13 11 10 8 8 8 9 9 10 11 11 11 10 9 9 9 10 10 10 10 11 11 11 11 11 12 12 12
35 35 34 33 32 31 30 29 29 28 26 24 22 18 16 15 14 12 11 10 9 10 10 10 10 11 12 12 9 9 9 9 10 10 10 10 11 11 11 11 12 12 13 13
36 36 35 35 34 33 31 30 29 28 27 26 23 19 16 16 16 14 12 12 11 11 11 11 11 12 12 12 10 9 9 9 10 10 11 11 11 11 12 13 13 13 13 13
37 37 36 35 33 32 32 31 30 29 29 27 24 21 18 18 18 16 14 14 14 13 12 12 12 12 13 12 12 11 10 10 11 11 12 12 12 13 14 14 14 14 14 14
37 37 36 35 35 34 33 31 31 31 30 28 24 22 19 19 19 18 16 16 16 15 14 14 14 13 13 13 12 12 12 12 12 13 13 14 14 14 15 15 15 15 15 14
36 36 36 36 35 36 35 34 32 31 30 29 26 23 20 20 20 19 17 17 16 15 15 14 14 13 13 13 12 12 12 13 13 13 14 14 14 15 15 15 16 16 16 15
36 35 35 35 34 35 36 34 33 32 31 29 27 23 21 21 20 20 19 18 16 15 15 15 14 13 13 13 13 13 13 14 14 14 15 15 15 15 15 16 16 16 16 16
34 35 35 34 34 37 35 33 33 32 31 29 27 25 24 22 21 21 20 19 18 17 16 16 15 14 14 13 13 14 14 15 15 16 17 16 16 16 16 16 16 16 16 16
34 34 35 35 35 36 35 34 32 32 31 30 28 27 25 24 23 23 22 21 20 19 18 17 17 16 15 14 14 15 16 16 17 18 18 17 17 17 17 17 17 17 17 16
36 36 36 36 36 36 35 33 33 32 32 30 29 27 26 25 25 24 23 22 21 21 20 19 18 18 16 16 16 16 17 18 19 19 19 19 19 18 18 18 18 18 17 17
37 37 38 37 36 35 34 33 33 33 32 29 29 28 26 25 24 24 24 23 23 22 22 21 20 20 19 18 17 17 19 20 20 20 20 20 19 19 18 18 18 18 18 17
38 39 39 38 36 35 33 33 33 32 31 29 28 28 26 26 25 24 24 24 24 24 23 22 21 19 18 18 18 19 20 21 21 21 21 20 19 20 20 19 19 18 18 17
40 40 39 38 37 34 33 33 32 32 31 30 28 27 27 26 26 25 25 25 25 24 23 22 22 21 20 20 19 20 21 21 22 22 21 21 21 21 21 20 20 19 19 18
41 41 40 39 36 35 33 33 32 32 31 30 30 29 29 28 27 26 25 26 26 25 25 24 23 23 23 22 21 21 22 22 22 22 22 22 22 22 22 21 21 20 20 20
41 41 41 39 37 35 34 33 33 32 32 32 31 30 30 30 29 28 27 27 27 27 27 26 25 24 24 23 22 22 22 22 23 23 23 23 23 23 22 21 22 22 22 22
41 41 40 39 38 36 35 34 34 33 33 33 32 31 30 30 30 30 29 28 28 28 28 27 25 24 24 23 23 23 23 23 24 24 24 24 24 24 23 23 23 23 23 23
Wind_Direction
216 214 213 215 217 220 225 230 238 243 256 277 319 10 15 10 8 14 15 16 13 16 18 19 21 17 18 17 14 13 6 2 4 359 357 359 359 356 352 347 340 335 330 324
216 214 213 216 220 223 227 234 242 248 257 271 284 315 338 352 349 3 3 3 1 3 7 7 10 15 14 11 7 6 2 355 355 350 349 349 346 340 336 331 333 328 321 317
218 217 215 218 221 225 231 237 242 249 255 265 274 286 307 323 324 344 349 350 352 353 359 2 1 2 4 0 3 0 353 353 349 346 345 341 339 336 329 326 332 332 323 317
218 218 219 221 223 228 233 238 239 245 254 262 268 277 282 295 303 325 344 353 352 348 348 350 350 353 357 359 2 359 353 350 349 349 345 341 338 337 333 328 329 329 326 324
218 219 221 222 225 228 232 237 239 245 251 257 264 269 273 288 303 317 332 340 344 344 341 340 343 346 354 353 353 355 350 345 347 350 347 342 338 335 334 331 329 329 327 328
219 220 221 221 225 228 231 235 238 244 249 254 260 265 267 283 292 307 325 328 336 338 337 332 333 338 342 345 347 348 346 346 347 348 346 344 342 337 334 330 328 329 330 329
220 220 219 221 225 228 230 232 236 240 244 248 253 259 269 275 274 285 303 316 330 333 329 325 328 332 339 340 342 344 345 346 342 339 333 332 335 332 330 328 326 325 323 323
221 220 219 221 225 229 230 232 236 240 244 246 251 256 263 261 269 279 296 310 316 324 325 329 335 335 334 335 334 338 341 343 339 331 327 324 326 326 326 324 323 321 317 317
221 221 222 223 225 227 229 231 235 239 243 245 250 256 254 256 264 275 287 300 308 313 320 328 332 332 331 329 328 330 336 339 337 332 327 330 329 328 325 321 320 320 318 316
220 221 222 224 225 226 228 230 233 237 240 245 249 251 253 253 259 268 276 293 308 318 320 327 329 328 326 323 322 323 330 335 336 334 331 330 334 336 334 330 324 321 319 318
219 220 221 223 225 227 228 229 232 236 241 245 249 250 251 251 257 263 272 286 300 314 321 321 327 331 328 323 318 318 324 331 332 331 330 331 334 335 334 332 329 324 322 320
220 220 220 222 224 226 228 231 233 236 240 245 249 249 249 251 254 262 271 282 292 307 316 319 323 326 324 322 316 316 319 324 327 327 329 332 332 333 331 329 328 325 322 321
221 221 221 221 223 224 227 229 233 237 240 244 247 249 248 248 252 259 270 280 292 300 307 311 314 317 317 318 316 315 317 319 324 325 326 329 327 325 324 324 324 324 322 320
222 223 223 224 225 226 228 230 233 237 240 244 248 250 247 248 251 257 268 277 290 293 295 301 305 310 316 320 323 321 320 318 319 320 321 322 321 321 321 319 320 321 321 320
222 224 223 222 223 225 229 231 234 237 242 246 250 251 248 249 252 255 260 269 281 285 285 290 298 308 313 317 322 322 322 319 318 316 316 316 316 318 319 318 318 319 319 320
223 225 224 223 222 225 228 231 233 236 241 245 248 250 251 250 251 252 256 266 275 277 281 287 293 305 309 311 316 319 318 319 318 316 314 313 312 315 317 316 317 319 319 317
223 224 224 224 223 225 227 229 233 237 240 243 246 248 250 251 251 253 257 261 267 271 277 284 292 300 303 305 309 312 314 317 317 316 315 313 312 313 314 314 316 316 317 317
223 225 225 225 224 227 228 229 233 236 239 241 244 246 249 250 250 251 254 256 262 268 275 280 286 293 297 298 301 306 310 315 316 317 316 313 311 311 311 312 314 314 315 315
224 225 226 227 228 231 231 230 232 236 239 240 242 245 247 248 249 250 253 257 260 265 273 277 282 288 293 296 298 301 305 310 312 313 313 312 310 307 305 307 310 311 313 314
224 225 226 228 230 231 232 232 234 237 239 240 242 245 247 249 250 251 254 257 260 265 273 278 280 284 289 294 296 298 301 305 308 309 309 311 313 309 304 301 306 309 310 312
226 226 228 230 233 234 234 234 235 238 239 241 243 245 248 248 249 249 250 255 261 266 271 275 278 281 285 291 294 295 300 303 305 306 308 310 311 309 304 303 305 307 308 310
227 227 229 232 234 236 235 236 237 239 240 242 243 244 246 247 247 249 251 255 261 265 269 272 278 281 284 288 290 292 297 301 302 303 305 306 307 308 304 302 303 302 304 306
227 227 230 232 234 235 236 237 237 238 240 240 241 242 244 246 247 249 253 256 259 261 266 270 275 279 282 285 286 289 294 297 299 300 301 302 303 305 305 302 300 299 299 301
227 228 230 232 234 235 236 237 238 238 238 239 241 243 244 246 247 250 253 256 257 260 265 268 272 277 280 281 282 287 291 295 297 298 298 299 302 302 300 299 298 296 296 297
227 228 230 232 234 235 236 237 238 239 239 239 240 243 245 247 250 251 252 254 257 260 263 266 270 276 279 280 281 284 289 292 294 295 296 297 299 297 294 295 296 295 294 295
226 228 230 232 233 235 237 238 239 240 240 240 240 242 244 247 249 249 249 251 255 259 262 265 270 274 275 277 281 284 287 290 292 293 294 295 294 294 294 294 294 293 293 294
Height
5906 5911 5913 5915 5917 5919 5921 5923 5924 5925 5926 5927 5927 5928 5928 5927 5927 5926 5925 5923 5922 5920 5919 5917 5915 5914 5912 5911 5910 5909 5908 5906 5905 5903 5902 5901 5900 5899 5898 5897 5896 5895 5894 5893
5904 5907 5910 5912 5915 5917 5919 5921 5923 5924 5925 5926 5927 5927 5927 5927 5926 5926 5925 5924 5922 5920 5919 5917 5916 5914 5913 5911 5910 5908 5907 5906 5904 5903 5902 5901 5900 5898 5897 5896 5895 5894 5893 5892
5901 5905 5907 5910 5913 5915 5917 5920 5922 5923 5924 5925 5926 5927 5927 5926 5926 5926 5925 5924 5923 5921 5919 5917 5916 5915 5913 5911 5909 5908 5907 5906 5904 5902 5901 5900 5899 5897 5896 5895 5894 5893 5892 5891
5896 5900 5903 5907 5910 5913 5915 5918 5920 5921 5922 5923 5925 5926 5926 5926 5925 5925 5925 5924 5922 5921 5919 5917 5916 5914 5912 5911 5909 5908 5907 5905 5903 5902 5900 5899 5898 5897 5895 5894 5893 5892 5890 5889
5893 5896 5900 5904 5908 5910 5913 5915 5917 5918 5920 5921 5922 5924 5926 5925 5924 5924 5924 5923 5922 5920 5918 5917 5915 5914 5912 5911 5909 5908 5906 5904 5902 5901 5900 5898 5897 5896 5895 5893 5892 5891 5889 5888
5889 5892 5897 5901 5904 5907 5910 5912 5914 5915 5917 5919 5920 5922 5924 5924 5924 5923 5923 5922 5921 5919 5917 5916 5915 5913 5912 5910 5909 5907 5905 5903 5902 5900 5899 5898 5897 5895 5894 5892 5891 5890 5888 5887
5883 5888 5892 5896 5899 5902 5906 5909 5911 5912 5914 5917 5918 5919 5922 5922 5922 5922 5921 5920 5919 5918 5916 5915 5913 5911 5910 5910 5909 5907 5905 5903 5901 5899 5898 5897 5896 5894 5893 5891 5890 5889 5887 5886
5878 5883 5888 5891 5895 5899 5902 5905 5908 5910 5912 5914 5915 5917 5920 5920 5920 5920 5919 5919 5918 5917 5915 5914 5913 5911 5910 5909 5908 5906 5904 5902 5900 5898 5897 5895 5894 5893 5892 5890 5889 5887 5886 5884
5874 5879 5884 5887 5891 5895 5898 5901 5904 5907 5909 5911 5913 5915 5917 5918 5918 5918 5918 5917 5916 5915 5914 5913 5912 5910 5909 5908 5906 5905 5903 5901 5899 5897 5896 5894 5893 5892 5890 5889 5887 5885 5884 5882
5868 5874 5878 5882 5886 5889 5894 5897 5900 5902 5905 5907 5910 5912 5914 5915 5916 5916 5916 5915 5915 5914 5913 5912 5911 5909 5907 5906 5904 5903 5902 5900 5899 5897 5895 5894 5892 5890 5889 5887 5885 5884 5882 5881
5862 5868 5873 5877 5881 5885 5889 5893 5895 5898 5901 5904 5906 5911 5911 5912 5913 5914 5913 5913 5913 5912 5911 5910 5909 5907 5906 5904 5903 5901 5900 5899 5898 5896 5894 5892 5891 5889 5887 5886 5884 5882 5880 5879
5856 5862 5867 5872 5877 5880 5884 5888 5892 5895 5897 5900 5902 5908 5908 5909 5910 5910 5911 5911 5911 5910 5909 5908 5907 5906 5904 5903 5901 5900 5898 5897 5896 5894 5893 5891 5889 5888 5886 5884 5882 5881 5879 5877
5850 5855 5861 5866 5872 5875 5879 5883 5887 5890 5893 5895 5898 5904 5904 5905 5906 5907 5908 5908 5907 5907 5907 5906 5905 5904 5903 5901 5899 5898 5897 5895 5894 5892 5891 5890 5888 5886 5885 5883 5881 5879 5876 5874
5844 5849 5856 5862 5866 5870 5874 5878 5882 5885 5888 5891 5894 5898 5900 5901 5903 5904 5905 5905 5904 5904 5904 5904 5903 5902 5901 5899 5898 5897 5895 5893 5892 5891 5889 5888 5886 5884 5883 5881 5879 5876 5874 5872
5837 5843 5849 5855 5861 5865 5869 5873 5877 5880 5884 5887 5890 5893 5896 5897 5899 5900 5901 5901 5901 5901 5901 5901 5901 5900 5899 5897 5896 5894 5893 5891 5890 5889 5887 5885 5884 5882 5880 5878 5876 5874 5872 5869
5832 5838 5843 5849 5854 5858 5862 5867 5871 5875 5878 5882 5885 5888 5891 5893 5894 5896 5897 5897 5898 5898 5898 5898 5898 5897 5896 5895 5893 5892 5891 5889 5888 5886 5885 5883 5881 5879 5877 5875 5873 5871 5869 5867
5827 5832 5837 5843 5848 5851 5855 5861 5865 5869 5873 5877 5880 5885 5886 5888 5890 5891 5893 5894 5894 5894 5894 5895 5894 5894 5893 5892 5891 5890 5888 5887 5885 5884 5881 5879 5878 5876 5874 5872 5870 5868 5866 5864
5821 5826 5831 5836 5842 5845 5853 5857 5860 5864 5868 5872 5875 5878 5881 5883 5885 5887 5888 5890 5890 5890 5891 5891 5891 5891 5890 5889 5888 5887 5885 5884 5883 5881 5879 5877 5875 5873 5871 5869 5867 5865 5863 5861
5815 5821 5825 5830 5834 5839 5846 5850 5854 5858 5862 5866 5869 5872 5875 5877 5879 5881 5883 5885 5886 5886 5887 5887 5887 5887 5886 5885 5884 5883 5882 5881 5880 5878 5876 5873 5871 5869 5868 5866 5864 5862 5860 5857
5809 5814 5820 5824 5828 5833 5840 5845 5848 5853 5856 5860 5863 5866 5869 5872 5874 5877 5879 5880 5881 5882 5882 5883 5882 5882 5882 5881 5880 5879 5878 5877 5876 5874 5872 5870 5867 5865 5864 5862 5860 5858 5856 5854
5802 5807 5812 5817 5822 5827 5833 5838 5843 5847 5851 5855 5857 5861 5863 5866 5869 5872 5873 5874 5875 5876 5877 5878 5878 5877 5878 5877 5876 5875 5874 5873 5872 5870 5868 5866 5864 5861 5859 5858 5856 5854 5853 5851
5795 5801 5806 5811 5816 5823 5827 5831 5836 5840 5844 5848 5851 5854 5857 5860 5863 5865 5867 5868 5870 5871 5872 5872 5872 5871 5872 5872 5871 5871 5870 5868 5867 5865 5863 5862 5860 5858 5856 5854 5852 5850 5849 5847
5788 5794 5799 5805 5812 5816 5820 5824 5829 5833 5837 5841 5844 5847 5850 5853 5856 5859 5861 5862 5864 5865 5866 5867 5867 5867 5867 5866 5866 5866 5865 5863 5862 5860 5859 5857 5855 5854 5852 5850 5848 5847 5845 5843
5781 5787 5792 5798 5804 5809 5813 5818 5822 5826 5830 5834 5837 5841 5844 5846 5849 5852 5854 5856 5858 5859 5860 5861 5862 5862 5861 5861 5860 5860 5859 5858 5857 5855 5854 5852 5850 5848 5847 5845 5843 5842 5840 5838
5774 5780 5785 5791 5797 5802 5807 5811 5815 5819 5823 5827 5830 5834 5837 5840 5842 5845 5847 5849 5851 5853 5854 5855 5856 5856 5856 5855 5855 5854 5853 5852 5851 5850 5848 5847 5845 5843 5841 5840 5838 5836 5835 5833
5767 5773 5779 5784 5790 5795 5800 5804 5808 5811 5815 5819 5823 5826 5829 5832 5835 5838 5840 5842 5844 5845 5847 5848 5849 5849 5849 5849 5849 5848 5847 5846 5845 5844 5842 5841 5839 5837 5836 5834 5832 5831 5829 5828